Manitowoc, WI

11:32 PM CDT on September 29, 2016 (GMT -0500)
Manitowoc County

Weather History for KMTW - April, 2012

Change the Weather History Date:

Thursday, April 26, 2012

  Actual Average Record
Temperature  
Mean Temperature 40 °F -  
Max Temperature 48 °F 57 °F 86 °F (1962)
Min Temperature 33 °F 37 °F 27 °F (1980)
Degree Days  
Heating Degree Days 24    
Moisture  
Dew Point 32 °F    
Average Humidity 64    
Maximum Humidity 87    
Minimum Humidity 34    
Precipitation  
Precipitation 0.00 in - - ()
Sea Level Pressure  
Sea Level Pressure 29.96 in    
Wind  
Wind Speed 9 mph (NNW)    
Max Wind Speed 23 mph    
Max Gust Speed 31 mph    
Visibility 10 miles    
Events      
Averages and records for this station are not official NWS values.
T = Trace of Precipitation, MM = Missing Value Source: NWS Daily Summary

Daily Weather History Graph

Daily Weather History Graph

Search for Another Location

Airport or City:

Trip Planner

Search our weather history database for the weather conditions in past years. The results will help you decide how hot, cold, wet, or windy it might be!

Date:

Astronomy

Apr. 26, 2012 Rise Set
Actual Time 5:48 AM CDT 7:48 PM CDT
Civil Twilight 5:17 AM CDT 8:20 PM CDT
Nautical Twilight 4:39 AM CDT 8:58 PM CDT
Astronomical Twilight 3:57 AM CDT 9:41 PM CDT
Moon 9:23 AM CDT (4/26) No Moon Set
Length of Visible Light 15h 02m
Length of Day
14h 00m
Waxing Crescent, 24% of the Moon is Illuminated
Apr 26
Waxing Crescent
Apr 29
First Quarter
May 5
Full
May 12
Last Quarter
May 20
New

Hourly Weather History & Observations

Time (CDT) Temp. Windchill Dew Point Humidity Pressure Visibility Wind Dir Wind Speed Gust Speed Precip Events Conditions
12:15 AM 44.6 °F - 39.2 °F 81% 29.72 in 10.0 mi Calm Calm - N/A   Overcast
12:35 AM 42.8 °F 41.1 °F 39.2 °F 87% 29.71 in 10.0 mi North 3.5 mph - N/A   Overcast
12:55 AM 42.8 °F - 39.2 °F 87% 29.71 in 10.0 mi Calm Calm - N/A   Overcast
1:15 AM 42.8 °F - 39.2 °F 87% 29.70 in 10.0 mi Calm Calm - N/A   Overcast
1:35 AM 42.8 °F 38.0 °F 39.2 °F 87% 29.72 in 10.0 mi NW 8.1 mph - N/A   Overcast
1:55 AM 44.6 °F 40.7 °F 39.2 °F 81% 29.71 in 7.0 mi NW 6.9 mph - N/A   Overcast
2:35 AM 44.6 °F 39.7 °F 39.2 °F 81% 29.72 in 6.0 mi NNW 9.2 mph - N/A   Overcast
2:55 AM 44.6 °F 40.2 °F 39.2 °F 81% 29.72 in 8.0 mi NNW 8.1 mph - N/A   Overcast
3:15 AM 44.6 °F 39.7 °F 39.2 °F 81% 29.72 in 10.0 mi NNW 9.2 mph - N/A   Overcast
3:35 AM 44.6 °F 39.2 °F 39.2 °F 81% 29.73 in 9.0 mi NNW 10.4 mph - N/A   Overcast
3:55 AM 44.6 °F 40.2 °F 39.2 °F 81% 29.73 in 10.0 mi NNW 8.1 mph - N/A   Overcast
4:15 AM 44.6 °F 39.2 °F 39.2 °F 81% 29.74 in 10.0 mi NNW 10.4 mph - N/A   Overcast
4:35 AM 44.6 °F 40.2 °F 39.2 °F 81% 29.74 in 10.0 mi NNW 8.1 mph - N/A   Overcast
4:55 AM 44.6 °F 40.7 °F 39.2 °F 81% 29.74 in 10.0 mi NNW 6.9 mph - N/A   Overcast
5:15 AM 44.6 °F 40.7 °F 39.2 °F 81% 29.75 in 9.0 mi NW 6.9 mph - N/A   Overcast
5:35 AM 44.6 °F 41.4 °F 39.2 °F 81% 29.75 in 10.0 mi NW 5.8 mph - N/A   Overcast
5:55 AM 44.6 °F 40.7 °F 39.2 °F 81% 29.76 in 10.0 mi NW 6.9 mph - N/A   Overcast
6:15 AM 44.6 °F 39.7 °F 39.2 °F 81% 29.78 in 10.0 mi NW 9.2 mph - N/A   Overcast
6:35 AM 44.6 °F 39.7 °F 39.2 °F 81% 29.79 in 10.0 mi WNW 9.2 mph - N/A   Overcast
6:55 AM 44.6 °F 38.1 °F 39.2 °F 81% 29.80 in 10.0 mi NW 13.8 mph - N/A   Overcast
7:15 AM 46.4 °F 39.8 °F 39.2 °F 76% 29.81 in 10.0 mi NNW 16.1 mph 25.3 mph N/A   Overcast
7:35 AM 46.4 °F 40.7 °F 39.2 °F 76% 29.82 in 10.0 mi NNW 12.7 mph 21.9 mph N/A   Overcast
7:55 AM 46.4 °F 40.7 °F 39.2 °F 76% 29.83 in 10.0 mi NNW 12.7 mph 23.0 mph N/A   Overcast
8:15 AM 46.4 °F 39.2 °F 37.4 °F 71% 29.85 in 10.0 mi NNW 18.4 mph 26.5 mph N/A   Overcast
8:35 AM 46.4 °F 39.2 °F 37.4 °F 71% 29.85 in 10.0 mi NNW 18.4 mph 28.8 mph N/A   Overcast
8:55 AM 46.4 °F 39.5 °F 37.4 °F 71% 29.86 in 10.0 mi North 17.3 mph 23.0 mph N/A   Overcast
9:15 AM 46.4 °F 39.8 °F 35.6 °F 66% 29.88 in 10.0 mi North 16.1 mph 26.5 mph N/A   Overcast
9:35 AM 46.4 °F 39.5 °F 35.6 °F 66% 29.89 in 10.0 mi NNW 17.3 mph 26.5 mph N/A   Overcast
9:55 AM 46.4 °F 39.5 °F 35.6 °F 66% 29.91 in 10.0 mi North 17.3 mph 28.8 mph N/A   Overcast
10:15 AM 46.4 °F 39.5 °F 35.6 °F 66% 29.92 in 10.0 mi North 17.3 mph 23.0 mph N/A   Overcast
10:35 AM 46.4 °F 38.5 °F 35.6 °F 66% 29.93 in 10.0 mi North 21.9 mph 27.6 mph N/A   Overcast
10:55 AM 48.2 °F - 33.8 °F 58% 29.95 in 10.0 mi North 21.9 mph 31.1 mph N/A   Mostly Cloudy
11:15 AM 48.2 °F - 32.0 °F 54% 29.96 in 10.0 mi NNW 19.6 mph 29.9 mph N/A   Mostly Cloudy
11:35 AM 46.4 °F 38.3 °F 32.0 °F 57% 29.97 in 10.0 mi North 23.0 mph 31.1 mph N/A   Overcast
11:55 AM 46.4 °F 38.7 °F 30.2 °F 53% 29.98 in 10.0 mi North 20.7 mph 28.8 mph N/A   Overcast
12:15 PM 46.4 °F 38.7 °F 28.4 °F 50% 30.00 in 10.0 mi NNW 20.7 mph 29.9 mph N/A   Mostly Cloudy
12:35 PM 48.2 °F - 26.6 °F 43% 30.00 in 10.0 mi NNW 19.6 mph 31.1 mph N/A   Scattered Clouds
1:15 PM 48.2 °F - 24.8 °F 40% 30.02 in 10.0 mi NNW 20.7 mph 31.1 mph N/A   Scattered Clouds
1:35 PM 48.2 °F - 26.6 °F 43% 30.03 in 10.0 mi North 21.9 mph 28.8 mph N/A   Clear
1:55 PM 48.2 °F - 24.8 °F 40% 30.04 in 10.0 mi North 18.4 mph 28.8 mph N/A   Clear
2:15 PM 48.2 °F - 24.8 °F 40% 30.04 in 10.0 mi NNW 19.6 mph 28.8 mph N/A   Clear
2:35 PM 48.2 °F - 26.6 °F 43% 30.04 in 10.0 mi North 18.4 mph 25.3 mph N/A   Clear
2:55 PM 48.2 °F - 24.8 °F 40% 30.05 in 10.0 mi NNW 18.4 mph 27.6 mph N/A   Clear
3:15 PM 48.2 °F - 24.8 °F 40% 30.06 in 10.0 mi North 15.0 mph 31.1 mph N/A   Clear
3:35 PM 48.2 °F - 24.8 °F 40% 30.07 in 10.0 mi North 16.1 mph 25.3 mph N/A   Clear
3:55 PM 48.2 °F - 24.8 °F 40% 30.07 in 10.0 mi NNW 19.6 mph 28.8 mph N/A   Clear
4:15 PM 48.2 °F - 23.0 °F 37% 30.07 in 10.0 mi NNW 20.7 mph 29.9 mph N/A   Clear
4:35 PM 48.2 °F - 24.8 °F 40% 30.08 in 10.0 mi North 12.7 mph 23.0 mph N/A   Clear
4:55 PM 48.2 °F - 24.8 °F 40% 30.08 in 10.0 mi North 15.0 mph 21.9 mph N/A   Clear
5:15 PM 48.2 °F - 24.8 °F 40% 30.08 in 10.0 mi North 16.1 mph 20.7 mph N/A   Clear
5:35 PM 48.2 °F - 23.0 °F 37% 30.09 in 10.0 mi North 13.8 mph 20.7 mph N/A   Clear
5:55 PM 48.2 °F - 24.8 °F 40% 30.10 in 10.0 mi NNW 12.7 mph 21.9 mph N/A   Partly Cloudy
6:15 PM 48.2 °F - 21.2 °F 34% 30.09 in 10.0 mi NNW 12.7 mph 24.2 mph N/A   Clear
6:35 PM 48.2 °F - 23.0 °F 37% 30.10 in 10.0 mi NNW 9.2 mph - N/A   Partly Cloudy
6:55 PM 46.4 °F 42.4 °F 24.8 °F 43% 30.10 in 10.0 mi ENE 8.1 mph - N/A   Clear
7:15 PM 42.8 °F 38.6 °F 28.4 °F 57% 30.11 in 10.0 mi ENE 6.9 mph - N/A   Clear
7:35 PM 41.0 °F 37.1 °F 28.4 °F 61% 30.12 in 10.0 mi ENE 5.8 mph - N/A   Clear
7:55 PM 39.2 °F 35.0 °F 28.4 °F 65% 30.13 in 10.0 mi East 5.8 mph - N/A   Clear
8:15 PM 39.2 °F 35.9 °F 28.4 °F 65% 30.15 in 10.0 mi ENE 4.6 mph - N/A   Clear
8:35 PM 37.4 °F - 28.4 °F 70% 30.16 in 10.0 mi Calm Calm - N/A   Clear
8:55 PM 37.4 °F - 28.4 °F 70% 30.17 in 10.0 mi Calm Calm - N/A   Clear
9:15 PM 37.4 °F - 26.6 °F 65% 30.17 in 10.0 mi Calm Calm - N/A   Clear
9:35 PM 35.6 °F - 28.4 °F 75% 30.18 in 10.0 mi Calm Calm - N/A   Clear
9:55 PM 37.4 °F - 28.4 °F 70% 30.19 in 10.0 mi Calm Calm - N/A   Clear
10:15 PM 35.6 °F - 28.4 °F 75% 30.20 in 10.0 mi Calm Calm - N/A   Clear
10:35 PM 33.8 °F - 26.6 °F 75% 30.20 in 10.0 mi Calm Calm - N/A   Clear
10:55 PM 33.8 °F - 26.6 °F 75% 30.19 in 10.0 mi Calm Calm - N/A   Clear
11:15 PM 33.8 °F - 28.4 °F 81% 30.20 in 10.0 mi Calm Calm - N/A   Clear
11:35 PM 33.8 °F - 28.4 °F 81% 30.20 in 10.0 mi Calm Calm - N/A   Clear
11:55 PM 33.8 °F - 28.4 °F 81% 30.20 in 10.0 mi Calm Calm - N/A   Clear